N93HQ MYNN-MYGF

Flight info

Callsign N93HQ
Flight time 0h 35m
Altitude 10000
Route SYDNY BR65V LAUGTH BR65V ZFP
Aircraft HDJT/M-V/N

Departure

Time 2026-04-26 22:52
Airport Lynden Pindling International Airport (MYNN)

Arrival

Time 2026-04-26 23:27
Airport Grand Bahama International Airport (MYGF)
Time Latitude Longitude Altitude Speed Heading
2026-04-26 22:33 25.03110 -77.45689 11 ft 0 kts 226°
2026-04-26 22:43 25.03105 -77.45696 11 ft 3 kts 239°
2026-04-26 22:43 25.03117 -77.45719 11 ft 5 kts 332°
2026-04-26 22:43 25.03161 -77.45723 11 ft 8 kts
2026-04-26 22:43 25.03220 -77.45703 11 ft 10 kts 20°
2026-04-26 22:44 25.03294 -77.45674 11 ft 12 kts 19°
2026-04-26 22:44 25.03381 -77.45641 11 ft 14 kts 18°
2026-04-26 22:44 25.03463 -77.45583 12 ft 15 kts 45°
2026-04-26 22:44 25.03544 -77.45509 11 ft 14 kts 359°
2026-04-26 22:45 25.03614 -77.45572 11 ft 13 kts 314°
2026-04-26 22:45 25.03681 -77.45648 12 ft 14 kts 314°
2026-04-26 22:45 25.03751 -77.45725 12 ft 15 kts 316°
2026-04-26 22:45 25.03830 -77.45810 12 ft 16 kts 314°
2026-04-26 22:46 25.03910 -77.45903 12 ft 17 kts 314°
2026-04-26 22:46 25.03998 -77.45999 12 ft 18 kts 316°
2026-04-26 22:46 25.04088 -77.46100 12 ft 19 kts 313°
2026-04-26 22:46 25.04182 -77.46206 12 ft 20 kts 315°
2026-04-26 22:47 25.04283 -77.46316 11 ft 21 kts 315°
2026-04-26 22:47 25.04388 -77.46432 12 ft 22 kts 315°
2026-04-26 22:47 25.04496 -77.46554 12 ft 23 kts 314°
2026-04-26 22:47 25.04607 -77.46678 12 ft 23 kts 315°
2026-04-26 22:48 25.04727 -77.46803 12 ft 24 kts 314°
2026-04-26 22:48 25.04846 -77.46938 12 ft 25 kts 315°
2026-04-26 22:48 25.04970 -77.47075 12 ft 26 kts 314°
2026-04-26 22:48 25.05095 -77.47218 12 ft 26 kts 314°
2026-04-26 22:49 25.05206 -77.47344 12 ft 17 kts 305°
2026-04-26 22:49 25.05220 -77.47401 13 ft 0 kts 265°
2026-04-26 22:50 25.05213 -77.47435 14 ft 8 kts 255°
2026-04-26 22:50 25.05187 -77.47505 16 ft 11 kts 229°
2026-04-26 22:51 25.05121 -77.47501 15 ft 0 kts 136°
2026-04-26 22:51 25.05082 -77.47457 14 ft 27 kts 134°
2026-04-26 22:51 25.04775 -77.47117 15 ft 98 kts 134°
2026-04-26 22:52 25.04191 -77.46459 274 ft 130 kts 135°
2026-04-26 22:52 25.03547 -77.45773 1061 ft 124 kts 139°
2026-04-26 22:52 25.02801 -77.45176 1479 ft 158 kts 144°
2026-04-26 22:52 25.01741 -77.44448 1929 ft 189 kts 150°
2026-04-26 22:53 25.00547 -77.43898 2873 ft 188 kts 167°
2026-04-26 22:53 24.99190 -77.44067 3381 ft 212 kts 206°
2026-04-26 22:53 24.98092 -77.45210 3895 ft 231 kts 241°
2026-04-26 22:53 24.97735 -77.46961 4420 ft 241 kts 275°
2026-04-26 22:54 24.98301 -77.48694 4932 ft 247 kts 306°
2026-04-26 22:54 24.99580 -77.49992 5439 ft 253 kts 323°
2026-04-26 22:54 25.01045 -77.51118 5947 ft 256 kts 325°
2026-04-26 22:54 25.02520 -77.52229 6444 ft 257 kts 324°
2026-04-26 22:55 25.03970 -77.53343 6909 ft 257 kts 324°
2026-04-26 22:55 25.05432 -77.54469 7378 ft 256 kts 324°
2026-04-26 22:55 25.06908 -77.55599 7865 ft 255 kts 324°
2026-04-26 22:55 25.08354 -77.56702 8349 ft 254 kts 324°
2026-04-26 22:56 25.09854 -77.57715 8840 ft 254 kts 330°
2026-04-26 22:56 25.11428 -77.58592 9346 ft 252 kts 332°
2026-04-26 22:56 25.13000 -77.59439 9849 ft 251 kts 332°
2026-04-26 22:56 25.14599 -77.60292 9987 ft 263 kts 332°
2026-04-26 22:57 25.16268 -77.61180 9993 ft 266 kts 332°
2026-04-26 22:57 25.17936 -77.62066 9996 ft 267 kts 332°
2026-04-26 22:57 25.19620 -77.62960 9991 ft 267 kts 332°
2026-04-26 22:57 25.21302 -77.63852 9991 ft 268 kts 332°
2026-04-26 22:58 25.22973 -77.64738 9989 ft 268 kts 332°
2026-04-26 22:58 25.24661 -77.65631 9990 ft 269 kts 332°
2026-04-26 22:58 25.26345 -77.66524 9993 ft 269 kts 332°
2026-04-26 22:58 25.28027 -77.67416 9991 ft 269 kts 332°
2026-04-26 22:59 25.29712 -77.68307 9991 ft 269 kts 332°
2026-04-26 22:59 25.30846 -77.68893 9989 ft 270 kts 335°
2026-04-26 23:00 25.32805 -77.69700 9990 ft 270 kts 337°
2026-04-26 23:00 25.34516 -77.70552 9993 ft 269 kts 328°
2026-04-26 23:00 25.36047 -77.71736 9989 ft 268 kts 319°
2026-04-26 23:00 25.37494 -77.73033 9982 ft 268 kts 321°
2026-04-26 23:01 25.39011 -77.74223 9990 ft 268 kts 324°
2026-04-26 23:01 25.40560 -77.75386 9989 ft 268 kts 323°
2026-04-26 23:01 25.42058 -77.76578 9984 ft 268 kts 322°
2026-04-26 23:01 25.43570 -77.77788 9987 ft 268 kts 322°
2026-04-26 23:02 25.45081 -77.79009 9991 ft 267 kts 322°
2026-04-26 23:02 25.46559 -77.80222 9989 ft 267 kts 322°
2026-04-26 23:02 25.48070 -77.81446 9986 ft 267 kts 322°
2026-04-26 23:02 25.49568 -77.82660 9986 ft 267 kts 322°
2026-04-26 23:03 25.51052 -77.83872 9991 ft 266 kts 322°
2026-04-26 23:03 25.52555 -77.85090 9988 ft 266 kts 322°
2026-04-26 23:03 25.54039 -77.86297 9985 ft 266 kts 322°
2026-04-26 23:03 25.55519 -77.87506 9985 ft 266 kts 322°
2026-04-26 23:04 25.57019 -77.88722 9986 ft 266 kts 322°
2026-04-26 23:04 25.58507 -77.89935 9988 ft 266 kts 322°
2026-04-26 23:04 25.59997 -77.91151 9991 ft 266 kts 322°
2026-04-26 23:04 25.61495 -77.92367 9984 ft 266 kts 322°
2026-04-26 23:05 25.62977 -77.93579 9981 ft 266 kts 322°
2026-04-26 23:05 25.64466 -77.94792 9958 ft 266 kts 322°
2026-04-26 23:05 25.65973 -77.96019 9802 ft 269 kts 322°
2026-04-26 23:05 25.67450 -77.97229 9610 ft 265 kts 322°
2026-04-26 23:06 25.68923 -77.98426 9397 ft 262 kts 322°
2026-04-26 23:06 25.70385 -77.99620 9182 ft 259 kts 322°
2026-04-26 23:06 25.71841 -78.00813 8969 ft 257 kts 322°
2026-04-26 23:06 25.73279 -78.01983 8758 ft 256 kts 322°
2026-04-26 23:07 25.74712 -78.03156 8549 ft 255 kts 322°
2026-04-26 23:07 25.75655 -78.03929 8410 ft 254 kts 322°
2026-04-26 23:07 25.77560 -78.05481 8136 ft 253 kts 322°
2026-04-26 23:07 25.78966 -78.06635 7933 ft 253 kts 322°
2026-04-26 23:08 25.80381 -78.07792 7722 ft 252 kts 322°
2026-04-26 23:08 25.81784 -78.08938 7518 ft 252 kts 322°
2026-04-26 23:08 25.83205 -78.10104 7315 ft 252 kts 322°
2026-04-26 23:08 25.84611 -78.11252 7118 ft 252 kts 322°
2026-04-26 23:09 25.86003 -78.12395 6921 ft 252 kts 322°
2026-04-26 23:09 25.87417 -78.13552 6716 ft 252 kts 323°
2026-04-26 23:09 25.88838 -78.14716 6510 ft 252 kts 322°
2026-04-26 23:09 25.90223 -78.15855 6303 ft 252 kts 322°
2026-04-26 23:10 25.91651 -78.17023 6083 ft 252 kts 322°
2026-04-26 23:10 25.93048 -78.18171 5875 ft 252 kts 322°
2026-04-26 23:10 25.94472 -78.19337 5665 ft 252 kts 323°
2026-04-26 23:10 25.95869 -78.20483 5459 ft 252 kts 322°
2026-04-26 23:11 25.97276 -78.21641 5258 ft 252 kts 323°
2026-04-26 23:11 25.98704 -78.22807 5047 ft 252 kts 322°
2026-04-26 23:11 26.00114 -78.23973 4839 ft 253 kts 323°
2026-04-26 23:11 26.01529 -78.25133 4626 ft 253 kts 323°
2026-04-26 23:12 26.02928 -78.26286 4424 ft 254 kts 323°
2026-04-26 23:12 26.04469 -78.27238 4195 ft 255 kts 341°
2026-04-26 23:12 26.06187 -78.27727 3994 ft 254 kts 347°
2026-04-26 23:12 26.07904 -78.28168 3793 ft 254 kts 346°
2026-04-26 23:13 26.09600 -78.28742 3594 ft 254 kts 341°
2026-04-26 23:13 26.11285 -78.29394 3402 ft 254 kts 342°
2026-04-26 23:13 26.12945 -78.29977 3211 ft 250 kts 344°
2026-04-26 23:13 26.14598 -78.30542 3004 ft 246 kts 343°
2026-04-26 23:14 26.16225 -78.31121 2777 ft 243 kts 343°
2026-04-26 23:14 26.17776 -78.31670 2549 ft 227 kts 344°
2026-04-26 23:14 26.19304 -78.32195 2291 ft 230 kts 344°
2026-04-26 23:14 26.20834 -78.32741 2058 ft 230 kts 343°
2026-04-26 23:15 26.21836 -78.33099 1993 ft 226 kts 343°
2026-04-26 23:15 26.23785 -78.33789 1986 ft 215 kts 344°
2026-04-26 23:15 26.24740 -78.34121 1990 ft 212 kts 344°
2026-04-26 23:15 26.26152 -78.34614 1989 ft 219 kts 343°
2026-04-26 23:16 26.27635 -78.35154 2002 ft 227 kts 343°
2026-04-26 23:16 26.29164 -78.35690 2003 ft 231 kts 343°
2026-04-26 23:16 26.30711 -78.36238 2000 ft 232 kts 343°
2026-04-26 23:16 26.32229 -78.36778 1998 ft 230 kts 343°
2026-04-26 23:17 26.33755 -78.37309 1995 ft 229 kts 344°
2026-04-26 23:17 26.35279 -78.37846 1995 ft 229 kts 343°
2026-04-26 23:17 26.36781 -78.38390 1993 ft 229 kts 343°
2026-04-26 23:17 26.38317 -78.38938 1993 ft 229 kts 344°
2026-04-26 23:18 26.39815 -78.39458 1992 ft 228 kts 343°
2026-04-26 23:18 26.41332 -78.39984 1990 ft 226 kts 343°
2026-04-26 23:18 26.42839 -78.40533 1994 ft 225 kts 343°
2026-04-26 23:18 26.44308 -78.41065 1990 ft 225 kts 343°
2026-04-26 23:19 26.45814 -78.41595 1990 ft 224 kts 343°
2026-04-26 23:19 26.47290 -78.42117 1987 ft 224 kts 343°
2026-04-26 23:19 26.48766 -78.42639 1985 ft 224 kts 343°
2026-04-26 23:19 26.50262 -78.43158 1985 ft 223 kts 343°
2026-04-26 23:20 26.51737 -78.43686 1986 ft 223 kts 343°
2026-04-26 23:20 26.53211 -78.44219 1990 ft 223 kts 343°
2026-04-26 23:20 26.54701 -78.44746 1987 ft 223 kts 343°
2026-04-26 23:20 26.56163 -78.45266 1988 ft 222 kts 343°
2026-04-26 23:21 26.57641 -78.45782 1985 ft 221 kts 343°
2026-04-26 23:21 26.59021 -78.46514 1993 ft 220 kts 329°
2026-04-26 23:21 26.60338 -78.47370 1992 ft 216 kts 332°
2026-04-26 23:21 26.61653 -78.48150 1988 ft 213 kts 332°
2026-04-26 23:22 26.62776 -78.49098 2000 ft 191 kts 311°
2026-04-26 23:22 26.63472 -78.50271 1984 ft 171 kts 294°
2026-04-26 23:22 26.63804 -78.51476 1986 ft 157 kts 278°
2026-04-26 23:22 26.63848 -78.52664 1985 ft 147 kts 263°
2026-04-26 23:23 26.63656 -78.53744 1988 ft 138 kts 249°
2026-04-26 23:23 26.63258 -78.54681 1978 ft 129 kts 237°
2026-04-26 23:23 26.62823 -78.55549 1990 ft 130 kts 240°
2026-04-26 23:23 26.62389 -78.56439 1989 ft 130 kts 238°
2026-04-26 23:24 26.61944 -78.57336 2005 ft 133 kts 239°
2026-04-26 23:24 26.61493 -78.58245 1954 ft 137 kts 239°
2026-04-26 23:24 26.61028 -78.59179 1829 ft 135 kts 238°
2026-04-26 23:24 26.60580 -78.60080 1633 ft 131 kts 238°
2026-04-26 23:25 26.60147 -78.60964 1438 ft 127 kts 237°
2026-04-26 23:25 26.59725 -78.61807 1267 ft 124 kts 238°
2026-04-26 23:25 26.59304 -78.62648 1109 ft 124 kts 238°
2026-04-26 23:25 26.58888 -78.63484 954 ft 122 kts 237°
2026-04-26 23:26 26.58477 -78.64323 800 ft 123 kts 239°
2026-04-26 23:26 26.58068 -78.65150 639 ft 122 kts 238°
2026-04-26 23:26 26.57663 -78.65962 476 ft 117 kts 237°
2026-04-26 23:26 26.57255 -78.66769 282 ft 120 kts 236°
2026-04-26 23:27 26.56855 -78.67572 153 ft 119 kts 236°
2026-04-26 23:27 26.56455 -78.68377 27 ft 115 kts 237°
2026-04-26 23:27 26.56099 -78.69052 18 ft 84 kts 248°
2026-04-26 23:27 26.55896 -78.69499 19 ft 43 kts 240°
2026-04-26 23:28 26.55776 -78.69728 18 ft 25 kts 239°
2026-04-26 23:28 26.55687 -78.69905 18 ft 28 kts 241°
2026-04-26 23:28 26.55588 -78.70107 19 ft 31 kts 240°
2026-04-26 23:28 26.55474 -78.70326 21 ft 34 kts 241°
2026-04-26 23:29 26.55355 -78.70571 21 ft 36 kts 239°
2026-04-26 23:29 26.55235 -78.70816 20 ft 35 kts 243°
2026-04-26 23:29 26.55153 -78.70975 20 ft 16 kts 221°
2026-04-26 23:29 26.55056 -78.71008 19 ft 13 kts 184°
2026-04-26 23:30 26.54988 -78.70990 19 ft 4 kts 126°
2026-04-26 23:30 26.54987 -78.70989 19 ft 0 kts 125°
2026-04-26 23:31 26.54986 -78.70988 19 ft 2 kts 118°
2026-04-26 23:31 26.54982 -78.70958 19 ft 6 kts 95°
2026-04-26 23:31 26.54980 -78.70896 19 ft 10 kts 90°
2026-04-26 23:32 26.54978 -78.70807 19 ft 13 kts 94°
2026-04-26 23:32 26.54973 -78.70698 19 ft 16 kts 92°
2026-04-26 23:32 26.54969 -78.70565 19 ft 18 kts 91°
2026-04-26 23:32 26.54965 -78.70416 19 ft 20 kts 92°
2026-04-26 23:33 26.54956 -78.70277 19 ft 14 kts 111°
2026-04-26 23:33 26.54911 -78.70183 19 ft 14 kts 108°
2026-04-26 23:33 26.54890 -78.70086 19 ft 6 kts 92°
2026-04-26 23:33 26.54890 -78.70085 19 ft 0 kts 92°